Location: Elstree
(51.6403°N, 0.2969°W)
Time: 18:42:52
(UTC+00:00)

Cosmos 1066 Rocket - Visible Passes

Search period start: 22 June 2021 00:00
Search period end: 02 July 2021 00:00
Orbit: 798 x 895 km, 81.2° (Epoch: 21 June)

Date Brightness Start Highest point End Pass type
(mag) Time Alt. Az. Time Alt. Az. Time Alt. Az.
25 Jun 7.7 02:58:39 10° NNE 03:00:45 12° NE 03:02:53 10° ENE visible
26 Jun 7.8 02:45:46 10° NNE 02:47:21 11° NE 02:48:56 10° ENE visible
27 Jun 7.8 02:33:14 10° NE 02:33:56 10° NE 02:34:37 10° NE visible
